CW0506 Weather Reports


Display with metric or nautical units.
time (UTC)temp
F
wind
direction
speed
MPH
gust
MPH
rain 1hr
in
rain 24hr
in
rain mn
in
humidity
%
barometer
mb
20180921005835 63 329 0.0 0.0 0.00 0.00 0.00 93 1024.2
20180921002836 63 329 0.0 0.0 0.00 0.00 0.00 92 1024.1
20180920235836 64 329 0.0 0.0 0.00 0.00 0.00 91 1023.7
20180920232836 64 329 0.0 0.0 0.00 0.00 0.00 89 1023.3
20180920225836 65 329 0.0 0.0 0.00 0.00 0.00 90 1023.5
20180920222836 66 273 0.0 0.0 0.00 0.00 0.00 87 1023.1
20180920215837 67 273 0.0 0.0 0.00 0.00 0.00 85 1023.2
20180920212836 69 273 0.0 0.0 0.00 0.00 0.00 78 1022.9
20180920205836 70 273 0.0 0.0 0.00 0.00 0.00 69 1022.8
20180920202836 70 196 0.0 0.0 0.00 0.00 0.00 71 1022.7
20180920195836 70 315 0.0 0.0 0.00 0.00 0.00 70 1022.6
20180920192836 70 240 0.0 0.0 0.00 0.00 0.00 71 1022.8
20180920185836 68 336 0.0 0.0 0.00 0.00 0.00 76 1022.7
20180920182836 69 205 0.0 0.0 0.00 0.00 0.00 74 1023.2
20180920175836 68 338 0.0 0.0 0.00 0.00 0.00 74 1023.5
20180920172836 67 290 0.0 1.0 0.00 0.00 0.00 73 1023.9
20180920165836 66 342 0.0 0.0 0.00 0.00 0.00 76 1024.1
20180920162837 65 274 0.0 1.0 0.00 0.00 0.00 82 1024.2
20180920155838 64 192 0.0 1.0 0.00 0.00 0.00 82 1024.2
20180920152837 63 339 0.0 0.0 0.00 0.00 0.00 82 1024.4
20180920145837 63 309 0.0 0.0 0.00 0.00 0.00 82 1024.3
20180920142837 63 342 0.0 0.0 0.00 0.00 0.00 84 1024.2
20180920135837 62 44 0.0 0.0 0.00 0.00 0.00 83 1023.6
20180920132837 62 19 0.0 0.0 0.00 0.00 0.00 88 1023.2
20180920125836 61 328 0.0 0.0 0.00 0.00 0.00 87 1023.4
20180920122839 60 328 0.0 0.0 0.00 0.00 0.00 89 1022.6
20180920115808 60 329 0.0 0.0 0.00 0.00 0.00 91 1022.7
20180920112808 59 306 0.0 0.0 0.00 0.00 0.00 92 1021.7
20180920105838 59 328 0.0 0.0 0.00 0.00 0.00 92 1021.6
20180920102809 59 327 0.0 0.0 0.00 0.00 0.00 92 1021.1
20180920095839 59 327 0.0 0.0 0.00 0.00 0.00 92 1020.7
20180920092808 60 327 0.0 0.0 0.00 0.00 0.00 91 1020.6
20180920085808 60 325 0.0 0.0 0.00 0.00 0.00 91 1020.1
20180920082808 60 291 0.0 0.0 0.00 0.01 0.00 92 1019.9
20180920075808 60 311 0.0 0.0 0.00 0.01 0.00 93 1019.9
20180920072808 60 311 0.0 0.0 0.00 0.01 0.00 92 1019.8
20180920065838 61 311 0.0 0.0 0.00 0.01 0.00 91 1019.7
20180920062808 61 306 0.0 0.0 0.00 0.01 0.00 90 1019.5
20180920055838 61 290 0.0 0.0 0.00 0.01 0.00 90 1019.2
20180920052810 61 213 0.0 0.0 0.00 0.01 0.00 91 1018.9
20180920045839 62 326 0.0 0.0 0.00 0.01 0.00 92 1018.9
20180920042808 62 280 0.0 0.0 0.00 0.01 0.00 93 1018.8
20180920035838 63 280 0.0 0.0 0.00 0.01 0.00 93 1018.7
20180920032838 63 280 0.0 0.0 0.00 0.01 0.01 93 1018.5
20180920025838 63 280 0.0 0.0 0.00 0.01 0.01 92 1018.3
20180920022808 64 281 0.0 0.0 0.00 0.01 0.01 91 1018.1
20180920015838 64 348 0.0 0.0 0.00 0.01 0.01 91 1017.9
20180920012839 65 208 0.0 0.0 0.00 0.01 0.01 90 1017.0